DW3072 Weather Reports


time (UTC)temp
F
wind
direction
speed
knots
gust
knots
rain 1hr
in
rain 24hr
in
rain mn
in
humidity
%
barometer
mb
20260510142040 66 262 3.5 7.8 0.01 0.24 0.01 74 1011.7
20260510140540 65 209 1.7 8.7 0.01 0.24 0.01 75 1011.7
20260510135052 64 278 0.9 5.2 0.01 0.24 0.01 79 1011.5
20260510133531 62 304 3.5 7.0 0.01 0.24 0.01 82 1011.4
20260510132026 60 267 1.7 4.3 0.00 0.23 0.00 88 1011.5
20260510130543 58 276 1.7 3.5 0.00 0.23 0.00 93 1011.7
20260510125038 57 276 1.7 4.3 0.00 0.23 0.00 94 1011.8
20260510123535 56 348 0.0 3.5 0.00 0.23 0.00 95 1011.7
20260510122032 54 146 0.9 3.5 0.00 0.23 0.00 96 1011.5
20260510120559 54 95 0.0 0.9 0.00 0.23 0.00 96 1011.5
20260510115032 52 270 0.9 2.6 0.00 0.23 0.00 96 1011.2
20260510113602 52 309 0.0 0.0 0.00 0.23 0.00 96 1011.1
20260510112038 52 309 0.0 0.0 0.00 0.23 0.00 96 1011.0
20260510110539 51 309 0.0 0.0 0.00 0.23 0.00 96 1010.8
20260510105029 51 309 0.0 0.0 0.00 0.23 0.00 95 1010.9
20260510103529 51 309 0.0 1.7 0.00 0.23 0.00 95 1010.4
20260510102044 51 40 0.0 0.0 0.00 0.23 0.00 96 1010.4
20260510100545 51 40 0.0 0.0 0.00 0.23 0.00 96 1010.3
20260510095040 50 40 0.0 0.0 0.00 0.23 0.00 95 1010.1
20260510093555 50 40 0.0 0.0 0.00 0.23 0.00 95 1010.1
20260510092049 50 40 0.0 0.0 0.00 0.23 0.00 95 1010.0
20260510090557 50 40 0.0 0.0 0.00 0.23 0.00 95 1009.9
20260510085050 50 40 0.0 0.0 0.00 0.23 0.00 95 1009.7
20260510083549 50 40 0.0 0.0 0.00 0.23 0.00 95 1009.7
20260510082047 50 40 0.0 0.0 0.00 0.23 0.00 95 1009.8
20260510080546 50 40 0.0 0.0 0.00 0.23 0.00 95 1010.1
20260510075041 50 40 0.0 0.0 0.00 0.23 0.00 95 1010.2
20260510073534 50 40 0.0 0.0 0.00 0.23 0.00 95 1010.5
20260510072034 49 40 0.0 0.0 0.00 0.23 0.00 95 1010.7
20260510070541 49 40 0.0 0.0 0.00 0.23 0.00 95 1010.8
20260510065036 48 141 0.0 2.6 0.00 0.23 0.00 95 1010.8
20260510063553 48 19 0.0 0.0 0.00 0.23 0.00 95 1010.1
20260510062047 48 19 0.0 0.0 0.00 0.23 0.00 94 1010.1
20260510060541 49 19 0.0 0.0 0.00 0.23 0.00 94 1010.4
20260510055053 49 19 0.0 0.0 0.00 0.23 0.00 94 1010.4
20260510053552 50 19 0.9 1.7 0.00 0.23 0.00 94 1010.3
20260510052049 50 52 0.0 0.0 0.00 0.23 0.00 94 1010.3
20260510050545 51 49 0.0 0.0 0.00 0.23 0.00 94 1010.1
20260510045113 51 49 0.0 0.0 0.00 0.23 0.00 94 1009.9
20260510043550 52 49 0.0 0.0 0.00 0.23 0.00 94 1010.0
20260510042045 53 49 0.0 1.7 0.00 0.23 0.00 94 1009.9
20260510040547 53 259 0.0 2.6 0.00 0.23 0.00 95 1010.0
20260510035031 53 302 0.0 1.7 0.00 0.24 0.23 95 1009.9
20260510033530 53 277 0.0 2.6 0.00 0.24 0.23 95 1009.8
20260510032043 54 272 0.9 1.7 0.00 0.24 0.23 95 1009.6
20260510030545 54 257 0.9 2.6 0.00 0.24 0.23 95 1009.7
20260510025054 53 281 0.0 2.6 0.00 0.24 0.23 95 1009.8
20260510023542 53 317 1.7 5.2 0.00 0.24 0.23 95 1009.5
20260510022041 53 269 1.7 4.3 0.00 0.24 0.23 95 1009.6
20260510020541 52 237 0.0 0.9 0.00 0.24 0.23 95 1009.4
20260510015100 51 276 0.0 1.7 0.00 0.24 0.23 93 1009.6
20260510013537 51 276 0.0 0.0 0.00 0.24 0.23 92 1009.5
20260510012053 51 276 0.0 0.0 0.00 0.24 0.23 91 1009.2
20260510010603 52 276 0.0 0.0 0.00 0.24 0.23 90 1009.2
20260510005054 53 276 0.0 0.0 0.00 0.24 0.23 90 1009.2
20260510003553 54 276 0.0 0.0 0.00 0.24 0.23 90 1009.0
20260510002053 54 276 0.0 0.0 0.00 0.24 0.23 90 1008.7
20260510000543 55 276 0.0 0.0 0.00 0.24 0.23 89 1008.7
20260509235057 56 276 0.0 1.7 0.00 0.24 0.23 88 1008.6
20260509233532 57 355 0.0 0.0 0.00 0.24 0.23 87 1008.4
20260509232029 57 355 0.0 2.6 0.00 0.24 0.23 87 1008.4
20260509230532 58 224 0.0 4.3 0.00 0.24 0.23 88 1008.3
20260509225102 57 201 0.0 1.7 0.00 0.24 0.23 88 1008.4
20260509223542 57 190 0.0 0.0 0.00 0.24 0.23 86 1008.3
20260509222037 58 278 2.6 4.3 0.00 0.24 0.23 85 1008.5
20260509220602 58 305 0.9 5.2 0.00 0.24 0.23 87 1008.4
20260509215033 58 263 0.9 2.6 0.00 0.24 0.23 88 1008.4
20260509213532 57 51 0.0 1.7 0.00 0.24 0.23 88 1008.6
20260509212044 57 247 0.9 3.5 0.00 0.24 0.23 88 1008.7
20260509210545 56 299 0.0 2.6 0.00 0.24 0.23 90 1008.8
20260509205037 56 45 0.9 3.5 0.00 0.24 0.23 90 1009.0
20260509203554 56 259 0.0 2.6 0.00 0.24 0.23 92 1009.1
20260509202051 55 258 0.0 2.6 0.01 0.24 0.23 92 1009.1
20260509200532 55 293 0.0 1.7 0.03 0.24 0.23 92 1008.9
20260509195045 54 280 0.9 1.7 0.06 0.24 0.23 92 1009.2
20260509193541 54 282 0.0 0.0 0.06 0.24 0.23 91 1009.5
20260509192036 54 309 0.0 0.0 0.06 0.23 0.22 90 1009.9
20260509190533 54 307 0.0 1.7 0.04 0.20 0.19 90 1010.2
20260509185028 54 57 0.0 1.7 0.04 0.18 0.17 90 1010.4
20260509183526 55 237 0.0 2.6 0.07 0.17 0.16 90 1010.5
20260509182028 55 320 0.0 1.7 0.10 0.17 0.16 90 1010.4
20260509180527 55 301 0.0 2.6 0.11 0.15 0.14 90 1010.4
20260509175035 56 276 0.0 1.7 0.10 0.13 0.12 89 1010.4
20260509173533 56 195 0.0 1.7 0.08 0.10 0.09 88 1010.4
20260509172035 57 230 0.0 1.7 0.05 0.07 0.06 88 1010.6
20260509170535 57 273 1.7 4.3 0.02 0.04 0.03 87 1010.5
20260509165027 58 311 0.9 2.6 0.01 0.03 0.02 85 1010.5
20260509163555 58 89 0.9 4.3 0.00 0.02 0.01 83 1010.5
20260509162050 58 283 2.6 4.3 0.00 0.02 0.01 83 1010.3
20260509160538 57 218 0.9 3.5 0.00 0.02 0.01 85 1010.5
20260509155032 56 273 0.9 3.5 0.00 0.02 0.01 86 1010.7
20260509153529 56 278 1.7 3.5 0.01 0.02 0.01 87 1010.7
20260509152030 56 288 0.0 1.7 0.01 0.02 0.01 86 1010.5
20260509150558 56 266 0.9 2.6 0.01 0.02 0.01 85 1010.5
20260509145029 55 286 0.0 1.7 0.00 0.01 0.00 85 1010.7
20260509143547 55 307 1.7 3.5 0.00 0.01 0.00 86 1010.8